Terug naar catalogus

STARLINK-5099

ActiefCommunicatieVLEO
NORAD 54009·PAYLOAD·🇺🇸 United States

Gelanceerd Oct 5, 2022 vanaf Vandenberg Space Force Base

Loading…

Volgende Passages (komende 24 uur)

TLE

VersSource: CelesTrak SupGP

Epoch: Sep 15, 2026, 01:44 UTC

1 54009C 22125AX  26258.07270833 -.00012003  00000+0 -35440-3 0  2587
2 54009  53.1592  77.2311 0001125  78.2055 144.1653 15.34417252    11

Volg STARLINK-5099 in realtime met AllMySat

Download on the App Store